KM6AHX-12 Weather Reports


Display with metric or nautical units.
time (UTC)temp
F
wind
direction
speed
MPH
gust
MPH
rain 1hr
in
rain 24hr
in
rain mn
in
humidity
%
barometer
mb
20230202233941 67 265 0.0 0.0 0.00 0.01 0.00 95
20230202233739 67 95 0.0 0.0 0.00 0.01 0.00 95
20230202233538 67 95 1.0 0.0 0.00 0.01 0.00 95
20230202233337 67 154 6.0 0.0 0.00 0.01 0.00 95
20230202233136 67 127 3.0 0.0 0.00 0.01 0.00 95
20230202232934 67 168 4.0 0.0 0.00 0.01 0.00 95
20230202232733 66 171 1.0 0.0 0.00 0.01 0.00 95
20230202232532 67 210 5.0 0.0 0.00 0.01 0.00 95
20230202232129 67 210 3.0 0.0 0.00 0.01 0.00 95
20230202231928 67 106 0.0 0.0 0.00 0.01 0.00 95
20230202231726 67 150 4.0 0.0 0.00 0.01 0.00 95
20230202231525 68 156 2.0 0.0 0.00 0.01 0.00 95
20230202231324 67 225 0.0 0.0 0.00 0.01 0.00 95
20230202231122 68 239 1.0 0.0 0.00 0.01 0.00 95
20230202230921 67 161 2.0 0.0 0.00 0.01 0.00 95
20230202230720 68 284 3.0 0.0 0.00 0.01 0.00 95
20230202230518 68 275 1.0 0.0 0.00 0.01 0.00 95
20230202230116 68 282 2.0 0.0 0.00 0.01 0.00 95
20230202225914 68 233 0.0 0.0 0.00 0.01 0.00 95
20230202225713 67 198 3.0 0.0 0.00 0.01 0.00 95
20230202225512 67 239 0.0 0.0 0.00 0.01 0.00 95
20230202225310 67 313 2.0 0.0 0.00 0.01 0.00 95
20230202224908 67 45 0.0 0.0 0.00 0.01 0.00 95
20230202224706 67 161 2.0 0.0 0.00 0.01 0.00 95
20230202224505 67 80 0.0 0.0 0.00 0.01 0.00 95
20230202224303 67 90 4.0 0.0 0.00 0.01 0.00 95
20230202224102 67 53 1.0 0.0 0.00 0.01 0.00 95
20230202223901 67 97 5.0 0.0 0.00 0.01 0.00 95
20230202223458 67 165 0.0 0.0 0.00 0.01 0.00 95
20230202223257 67 165 0.0 0.0 0.00 0.01 0.00 95
20230202223056 67 165 0.0 0.0 0.00 0.01 0.00 95
20230202222854 67 217 1.0 0.0 0.00 0.01 0.00 95
20230202222653 67 244 0.0 0.0 0.00 0.01 0.00 95
20230202222049 67 299 0.0 0.0 0.00 0.01 0.00 95
20230202221646 66 229 4.0 0.0 0.00 0.01 0.00 95
20230202221445 67 202 2.0 0.0 0.00 0.01 0.00 95
20230202221244 67 156 2.0 0.0 0.00 0.01 0.00 95
20230202221042 67 151 4.0 0.0 0.00 0.01 0.00 95
20230202220840 67 208 4.0 0.0 0.00 0.01 0.00 95
20230202220640 67 149 0.0 0.0 0.00 0.01 0.00 95
20230202220438 67 191 0.0 0.0 0.00 0.01 0.00 95
20230202220237 67 291 3.0 0.0 0.00 0.01 0.00 95
20230202215834 67 264 2.0 0.0 0.00 0.01 0.00 95
20230202215633 67 309 2.0 0.0 0.00 0.01 0.00 95
20230202215432 67 305 0.0 0.0 0.00 0.01 0.00 95
20230202214828 67 247 0.0 0.0 0.00 0.01 0.00 95
20230202214626 67 288 0.0 0.0 0.00 0.01 0.00 95
20230202214425 67 323 2.0 0.0 0.00 0.01 0.00 95
20230202214224 67 336 0.0 0.0 0.00 0.01 0.00 95
20230202214022 67 285 2.0 0.0 0.00 0.01 0.00 95
20230202213821 67 329 3.0 0.0 0.00 0.01 0.00 95
20230202213620 67 303 1.0 0.0 0.00 0.01 0.00 95
20230202213419 67 223 0.0 0.0 0.00 0.01 0.00 95
20230202213217 67 288 2.0 0.0 0.00 0.01 0.00 95
20230202212814 67 278 2.0 0.0 0.00 0.01 0.00 95
20230202212613 67 265 0.0 0.0 0.00 0.01 0.00 95
20230202212412 67 265 0.0 0.0 0.00 0.01 0.00 95
20230202212210 67 270 2.0 0.0 0.00 0.01 0.00 95
20230202211405 67 292 0.0 0.0 0.00 0.01 0.00 95
20230202211204 67 309 3.0 0.0 0.00 0.01 0.00 95
20230202211002 67 286 3.0 0.0 0.00 0.01 0.00 95
20230202210801 67 319 5.0 0.0 0.00 0.01 0.00 95
20230202210600 67 206 2.0 0.0 0.00 0.01 0.00 95
20230202210358 67 281 0.0 0.0 0.00 0.01 0.00 95
20230202210157 66 123 0.0 0.0 0.00 0.01 0.00 95
20230202205956 67 246 1.0 0.0 0.00 0.01 0.00 95
20230202205755 67 250 0.0 0.0 0.00 0.01 0.00 95
20230202205553 67 337 0.0 0.0 0.00 0.01 0.00 95
20230202205352 67 295 1.0 0.0 0.00 0.01 0.00 95
20230202205151 67 312 5.0 0.0 0.00 0.01 0.00 95
20230202204949 67 137 0.0 0.0 0.00 0.01 0.00 95
20230202204748 66 199 0.0 0.0 0.00 0.01 0.00 95
20230202204144 67 267 5.0 0.0 0.00 0.01 0.00 95
20230202203741 67 202 0.0 0.0 0.00 0.01 0.00 95
20230202203540 67 285 6.0 0.0 0.00 0.01 0.00 95
20230202203339 66 291 4.0 0.0 0.00 0.01 0.00 95
20230202203137 66 300 4.0 0.0 0.00 0.01 0.00 95
20230202202936 66 307 4.0 0.0 0.00 0.01 0.00 95
20230202202130 67 205 2.0 0.0 0.00 0.01 0.00 95
20230202201929 67 250 3.0 0.0 0.00 0.01 0.00 95
20230202201728 67 299 7.0 0.0 0.00 0.01 0.00 95
20230202201527 67 288 4.0 0.0 0.00 0.01 0.00 95
20230202201326 67 291 6.0 0.0 0.00 0.01 0.00 95
20230202201124 65 300 0.0 0.0 0.00 0.01 0.00 95
20230202200923 66 302 2.0 0.0 0.00 0.01 0.00 95
20230202200319 65 286 4.0 0.0 0.00 0.01 0.00 95
20230202200118 65 312 2.0 0.0 0.00 0.01 0.00 95
20230202195514 65 260 3.0 0.0 0.00 0.01 0.00 95
20230202195312 65 284 1.0 0.0 0.00 0.01 0.00 95
20230202195111 65 324 3.0 0.0 0.00 0.01 0.00 95
20230202194910 65 5 0.0 0.0 0.00 0.01 0.00 95
20230202194708 65 286 0.0 0.0 0.00 0.01 0.00 95
20230202194507 65 291 0.0 0.0 0.00 0.01 0.00 95
20230202194306 65 271 2.0 0.0 0.00 0.01 0.00 95
20230202193903 65 277 6.0 0.0 0.00 0.01 0.00 95
20230202193702 65 303 3.0 0.0 0.00 0.01 0.00 95
20230202193259 65 84 0.0 0.0 0.00 0.01 0.00 95
20230202192454 65 195 0.0 0.0 0.00 0.01 0.00 95
20230202192252 65 212 7.0 0.0 0.00 0.01 0.00 95
20230202192051 65 244 0.0 0.0 0.00 0.01 0.00 95
20230202191849 65 244 1.0 0.0 0.00 0.01 0.00 95
20230202191648 65 279 0.0 0.0 0.00 0.01 0.00 95
20230202191447 65 330 2.0 0.0 0.00 0.01 0.00 95
20230202191044 66 322 1.0 0.0 0.00 0.01 0.00 95
20230202190843 66 258 3.0 0.0 0.00 0.01 0.00 95
20230202190239 66 233 0.0 0.0 0.00 0.01 0.00 95
20230202185635 66 241 0.0 0.0 0.00 0.01 0.00 95
20230202185434 65 322 0.0 0.0 0.00 0.01 0.00 95
20230202185233 65 345 1.0 0.0 0.00 0.01 0.00 95
20230202184830 65 265 4.0 0.0 0.00 0.01 0.00 95
20230202184628 64 277 0.0 0.0 0.00 0.01 0.00 95
20230202184427 64 272 0.0 0.0 0.00 0.01 0.00 95
20230202184025 63 296 0.0 0.0 0.00 0.01 0.00 95
20230202183622 63 268 4.0 0.0 0.00 0.01 0.00 95
20230202183421 63 240 0.0 0.0 0.00 0.01 0.00 95
20230202183219 63 240 0.0 0.0 0.00 0.01 0.00 95
20230202183017 63 234 0.0 0.0 0.00 0.01 0.00 95
20230202182414 62 209 0.0 0.0 0.00 0.01 0.00 95
20230202182011 63 209 0.0 0.0 0.00 0.01 0.00 95
20230202181810 64 222 2.0 0.0 0.00 0.01 0.00 95
20230202181407 64 156 2.0 0.0 0.00 0.01 0.00 95
20230202181206 64 237 4.0 0.0 0.00 0.01 0.00 95
20230202181004 64 307 0.0 0.0 0.00 0.01 0.00 95
20230202180803 64 303 3.0 0.0 0.00 0.01 0.00 95
20230202180401 64 278 0.0 0.0 0.00 0.01 0.00 95
20230202180159 64 309 0.0 0.0 0.00 0.01 0.00 95
20230202175958 64 157 0.0 0.0 0.00 0.01 0.00 95
20230202175757 64 135 0.0 0.0 0.00 0.01 0.00 95
20230202175555 63 171 0.0 0.0 0.00 0.01 0.00 95
20230202175354 63 171 0.0 0.0 0.00 0.01 0.00 95
20230202174951 63 171 0.0 0.0 0.00 0.01 0.00 95
20230202174750 63 99 0.0 0.0 0.00 0.01 0.00 95
20230202174549 63 99 0.0 0.0 0.00 0.01 0.00 95
20230202174347 63 99 0.0 0.0 0.00 0.01 0.00 95
20230202173945 63 52 0.0 0.0 0.00 0.01 0.00 95
20230202173139 62 303 0.0 0.0 0.00 0.01 0.00 95
20230202172736 62 303 0.0 0.0 0.00 0.01 0.00 95
20230202172535 61 303 0.0 0.0 0.00 0.01 0.00 95
20230202171931 61 275 0.0 0.0 0.00 0.01 0.00 95
20230202171125 60 275 0.0 0.0 0.00 0.01 0.00 95
20230202170924 60 275 0.0 0.0 0.00 0.01 0.00 95
20230202170723 59 275 0.0 0.0 0.00 0.01 0.00 95
20230202170320 59 281 3.0 0.0 0.00 0.01 0.00 95
20230202170119 58 271 0.0 0.0 0.00 0.01 0.00 95
20230202165716 57 271 0.0 0.0 0.00 0.01 0.00 95
20230202165515 57 271 0.0 0.0 0.00 0.01 0.00 95
20230202165313 57 271 0.0 0.0 0.00 0.01 0.00 95
20230202165112 56 271 0.0 0.0 0.00 0.01 0.00 95
20230202164911 56 60 0.0 0.0 0.00 0.01 0.00 95
20230202164710 55 60 0.0 0.0 0.00 0.01 0.00 95
20230202164508 55 60 0.0 0.0 0.00 0.01 0.00 95
20230202164306 54 60 0.0 0.0 0.00 0.01 0.00 95
20230202164106 55 60 0.0 0.0 0.00 0.01 0.00 95
20230202163904 54 60 0.0 0.0 0.00 0.01 0.00 95
20230202163702 54 60 0.0 0.0 0.00 0.01 0.00 95
20230202163502 54 60 0.0 0.0 0.00 0.01 0.00 95
20230202163300 54 60 0.0 0.0 0.00 0.01 0.00 95
20230202163059 54 127 3.0 0.0 0.00 0.01 0.00 95
20230202162859 54 130 2.0 0.0 0.00 0.01 0.00 95
20230202162656 53 95 2.0 0.0 0.00 0.01 0.00 95
20230202162454 53 105 3.0 0.0 0.00 0.01 0.00 95
20230202162051 51 94 0.0 0.0 0.00 0.01 0.00 95
20230202161850 50 95 2.0 0.0 0.00 0.01 0.00 95
20230202161447 49 70 0.0 0.0 0.00 0.01 0.00 95
20230202161247 49 70 0.0 0.0 0.00 0.01 0.00 95
20230202160843 49 70 0.0 0.0 0.00 0.01 0.00 95
20230202160643 48 70 0.0 0.0 0.00 0.01 0.00 95
20230202155435 46 70 0.0 0.0 0.00 0.01 0.00 95
20230202155234 47 70 0.0 0.0 0.00 0.01 0.00 95
20230202155032 46 70 0.0 0.0 0.00 0.01 0.00 95
20230202154831 46 70 0.0 0.0 0.00 0.01 0.00 95
20230202154227 45 70 0.0 0.0 0.00 0.01 0.00 95
20230202154026 45 70 0.0 0.0 0.00 0.01 0.00 95
20230202153623 44 70 0.0 0.0 0.00 0.01 0.00 95
20230202153422 44 70 0.0 0.0 0.00 0.01 0.00 95
20230202153220 44 70 0.0 0.0 0.00 0.01 0.00 95
20230202152817 44 70 0.0 0.0 0.00 0.01 0.00 95
20230202152415 44 70 0.0 0.0 0.00 0.01 0.00 95
20230202152214 44 70 0.0 0.0 0.00 0.01 0.00 95
20230202151811 44 70 0.0 0.0 0.00 0.01 0.00 95
20230202151610 44 70 0.0 0.0 0.00 0.01 0.00 95
20230202151207 44 70 0.0 0.0 0.00 0.01 0.00 95
20230202151006 44 70 0.0 0.0 0.00 0.01 0.00 95
20230202150402 44 70 0.0 0.0 0.00 0.01 0.00 95
20230202150201 44 70 0.0 0.0 0.00 0.01 0.00 95
20230202145556 43 109 2.0 0.0 0.00 0.01 0.00 95
20230202145356 43 92 3.0 0.0 0.00 0.01 0.00 95
20230202144751 42 78 0.0 0.0 0.00 0.01 0.00 95
20230202144347 42 78 0.0 0.0 0.00 0.01 0.00 95
20230202144146 42 78 0.0 0.0 0.00 0.01 0.00 95
20230202143944 42 78 0.0 0.0 0.00 0.01 0.00 95
20230202143744 42 78 0.0 0.0 0.00 0.01 0.00 95
20230202142851 42 78 0.0 0.0 0.00 0.01 0.00 95
20230202142551 42 78 0.0 0.0 0.00 0.01 0.00 95
20230202142249 42 78 0.0 0.0 0.00 0.01 0.00 95
20230202141947 42 78 0.0 0.0 0.00 0.01 0.00 95
20230202141645 42 78 0.0 0.0 0.00 0.01 0.00 95
20230202141344 42 78 0.0 0.0 0.00 0.01 0.00 95
20230202141043 42 78 0.0 0.0 0.00 0.01 0.00 95
20230202140742 42 78 0.0 0.0 0.00 0.01 0.00 95
20230202140440 42 78 0.0 0.0 0.00 0.00 0.00 95
20230202140138 42 78 0.0 0.0 0.00 0.00 0.00 95
20230202135837 42 78 0.0 0.0 0.00 0.00 0.00 95
20230202135535 42 78 0.0 0.0 0.00 0.00 0.00 95
20230202134932 42 78 0.0 0.0 0.00 0.00 0.00 95
20230202134631 42 78 0.0 0.0 0.00 0.00 0.00 95
20230202134329 42 78 0.0 0.0 0.00 0.00 0.00 95
20230202134028 42 78 0.0 0.0 0.00 0.00 0.00 95
20230202133726 42 78 0.0 0.0 0.00 0.00 0.00 95
20230202133123 42 78 0.0 0.0 0.00 0.00 0.00 95
20230202132821 43 78 0.0 0.0 0.00 0.00 0.00 95
20230202132219 43 78 0.0 0.0 0.00 0.00 0.00 95
20230202131917 43 78 0.0 0.0 0.00 0.00 0.00 95
20230202131615 43 78 0.0 0.0 0.00 0.00 0.00 95
20230202131314 42 78 0.0 0.0 0.00 0.00 0.00 95
20230202131012 42 78 0.0 0.0 0.00 0.00 0.00 95
20230202130712 42 78 0.0 0.0 0.00 0.00 0.00 95
20230202130409 42 78 0.0 0.0 0.00 0.00 0.00 95
20230202130108 42 78 0.0 0.0 0.00 0.00 0.00 95
20230202125807 42 78 0.0 0.0 0.00 0.00 0.00 95
20230202125506 42 78 0.0 0.0 0.00 0.00 0.00 95
20230202124902 42 78 0.0 0.0 0.00 0.00 0.00 95
20230202124601 42 78 0.0 0.0 0.00 0.00 0.00 95
20230202124300 42 78 0.0 0.0 0.00 0.00 0.00 95
20230202123657 42 78 0.0 0.0 0.00 0.00 0.00 95
20230202123354 42 78 0.0 0.0 0.00 0.00 0.00 95
20230202123053 42 78 0.0 0.0 0.00 0.00 0.00 95
20230202122451 42 78 0.0 0.0 0.00 0.00 0.00 95
20230202122149 43 78 0.0 0.0 0.00 0.00 0.00 95
20230202121847 43 78 0.0 0.0 0.00 0.00 0.00 95
20230202121244 43 78 0.0 0.0 0.00 0.00 0.00 95
20230202120943 43 78 0.0 0.0 0.00 0.00 0.00 95
20230202120641 43 78 0.0 0.0 0.00 0.00 0.00 95
20230202120340 43 78 0.0 0.0 0.00 0.00 0.00 95
20230202120039 42 78 0.0 0.0 0.00 0.00 0.00 95
20230202115737 42 78 0.0 0.0 0.00 0.00 0.00 95
20230202115135 42 78 0.0 0.0 0.00 0.00 0.00 95
20230202114832 43 78 0.0 0.0 0.00 0.00 0.00 95
20230202114531 43 78 0.0 0.0 0.00 0.00 0.00 95
20230202114230 43 78 0.0 0.0 0.00 0.00 0.00 95
20230202113626 43 78 0.0 0.0 0.00 0.00 0.00 95
20230202113325 43 78 0.0 0.0 0.00 0.00 0.00 95
20230202113023 43 78 0.0 0.0 0.00 0.00 0.00 95
20230202112722 43 78 0.0 0.0 0.00 0.00 0.00 95
20230202112420 44 78 0.0 0.0 0.00 0.00 0.00 95
20230202112119 44 78 0.0 0.0 0.00 0.00 0.00 95
20230202111515 44 78 0.0 0.0 0.00 0.00 0.00 95
20230202110913 44 78 0.0 0.0 0.00 0.00 0.00 95
20230202110008 44 78 0.0 0.0 0.00 0.00 0.00 95
20230202105707 44 78 0.0 0.0 0.00 0.00 0.00 95
20230202105405 43 78 0.0 0.0 0.00 0.00 0.00 95
20230202105104 43 64 2.0 0.0 0.00 0.00 0.00 95
20230202104159 43 90 0.0 0.0 0.00 0.00 0.00 95
20230202103556 43 105 2.0 0.0 0.00 0.00 0.00 95
20230202102953 43 56 0.0 0.0 0.00 0.00 0.00 95
20230202102652 43 56 0.0 0.0 0.00 0.00 0.00 95
20230202102350 43 56 0.0 0.0 0.00 0.00 0.00 95
20230202102049 43 75 0.0 0.0 0.00 0.00 0.00 95
20230202101747 43 75 0.0 0.0 0.00 0.00 0.00 95
20230202101446 43 75 0.0 0.0 0.00 0.00 0.00 95
20230202101144 43 75 0.0 0.0 0.00 0.00 0.00 95
20230202100843 43 75 0.0 0.0 0.00 0.00 0.00 95
20230202100541 43 75 0.0 0.0 0.00 0.00 0.00 95
20230202100240 44 75 0.0 0.0 0.00 0.00 0.00 95
20230202095938 44 75 0.0 0.0 0.00 0.00 0.00 95
20230202095637 44 75 0.0 0.0 0.00 0.00 0.00 95
20230202095336 44 75 0.0 0.0 0.00 0.00 0.00 95
20230202095034 44 75 0.0 0.0 0.00 0.00 0.00 95
20230202094732 44 75 0.0 0.0 0.00 0.00 0.00 95
20230202094431 44 75 0.0 0.0 0.00 0.00 0.00 95
20230202094131 44 75 0.0 0.0 0.00 0.00 0.00 95
20230202093828 44 75 0.0 0.0 0.00 0.00 0.00 95
20230202093526 43 75 0.0 0.0 0.00 0.00 0.00 95
20230202093225 44 75 0.0 0.0 0.00 0.00 0.00 95
20230202092923 44 75 0.0 0.0 0.00 0.00 0.00 95
20230202092622 44 75 0.0 0.0 0.00 0.00 0.00 95
20230202092019 44 75 0.0 0.0 0.00 0.00 0.00 95
20230202091717 44 75 0.0 0.0 0.00 0.00 0.00 95
20230202091416 44 75 0.0 0.0 0.00 0.00 0.00 95
20230202090813 44 75 0.0 0.0 0.00 0.00 0.00 95
20230202090511 44 75 0.0 0.0 0.00 0.00 0.00 95
20230202090210 44 75 0.0 0.0 0.00 0.00 0.00 95
20230202085607 44 75 0.0 0.0 0.00 0.00 0.00 95
20230202085306 44 75 0.0 0.0 0.00 0.00 0.00 95
20230202085004 44 75 0.0 0.0 0.00 0.00 0.00 95
20230202084704 44 75 0.0 0.0 0.00 0.00 0.00 95
20230202084401 44 75 0.0 0.0 0.00 0.00 0.00 95
20230202084059 43 75 0.0 0.0 0.00 0.00 0.00 95
20230202083758 43 75 0.0 0.0 0.00 0.00 0.00 95
20230202083456 43 75 0.0 0.0 0.00 0.00 0.00 95
20230202083155 44 75 0.0 0.0 0.00 0.00 0.00 95
20230202082854 44 75 0.0 0.0 0.00 0.00 0.00 95
20230202082552 43 75 0.0 0.0 0.00 0.00 0.00 95
20230202082250 43 75 0.0 0.0 0.00 0.00 0.00 95
20230202081950 43 75 0.0 0.0 0.00 0.00 0.00 95
20230202081649 43 75 0.0 0.0 0.00 0.00 0.00 95
20230202081346 43 75 0.0 0.0 0.00 0.00 0.00 95
20230202081044 44 75 0.0 0.0 0.00 0.00 0.00 95
20230202080742 44 75 0.0 0.0 0.00 0.00 0.00 95
20230202080442 44 75 0.0 0.0 0.00 0.00 0.00 95
20230202075838 44 75 0.0 0.0 0.00 0.00 0.00 95
20230202075537 44 75 0.0 0.0 0.00 0.00 0.00 95
20230202074934 45 75 0.0 0.0 0.00 0.00 0.00 95
20230202074633 46 75 0.0 0.0 0.00 0.00 0.00 95
20230202074331 46 75 0.0 0.0 0.00 0.00 0.00 95
20230202073426 46 75 0.0 0.0 0.00 0.00 0.00 95
20230202073126 46 75 0.0 0.0 0.00 0.00 0.00 95
20230202072823 46 75 0.0 0.0 0.00 0.00 0.00 95
20230202072522 45 75 0.0 0.0 0.00 0.00 0.00 95
20230202072220 45 75 0.0 0.0 0.00 0.00 0.00 95
20230202071919 45 75 0.0 0.0 0.00 0.00 0.00 95
20230202071617 45 75 0.0 0.0 0.00 0.00 0.00 95
20230202071317 45 75 0.0 0.0 0.00 0.00 0.00 95
20230202070412 45 75 0.0 0.0 0.00 0.00 0.00 95
20230202065808 45 75 0.0 0.0 0.00 0.00 0.00 95
20230202065507 45 75 0.0 0.0 0.00 0.00 0.00 95
20230202064904 47 75 0.0 0.0 0.00 0.00 0.00 95
20230202064603 47 75 0.0 0.0 0.00 0.00 0.00 95
20230202064302 48 75 0.0 0.0 0.00 0.00 0.00 95
20230202063959 49 75 0.0 0.0 0.00 0.00 0.00 95
20230202063356 51 74 0.0 0.0 0.00 0.00 0.00 95
20230202063055 51 74 0.0 0.0 0.00 0.00 0.00 95
20230202062753 51 99 3.0 0.0 0.00 0.00 0.00 95
20230202062150 47 66 5.0 0.0 0.00 0.00 0.00 95
20230202061850 47 195 0.0 0.0 0.00 0.00 0.00 95
20230202061246 49 195 0.0 0.0 0.00 0.00 0.00 95
20230202060945 50 195 0.0 0.0 0.00 0.00 0.00 95
20230202060040 53 219 2.0 0.0 0.00 0.00 0.00 95
20230202055135 52 23 0.0 0.0 0.00 0.00 0.00 95
20230202054834 51 23 0.0 0.0 0.00 0.00 0.00 95
20230202054532 52 23 0.0 0.0 0.00 0.00 0.00 95
20230202054231 51 57 3.0 0.0 0.00 0.00 0.00 95
20230202053929 52 29 0.0 0.0 0.00 0.00 0.00 95
20230202053327 50 5 3.0 0.0 0.00 0.00 0.00 95
20230202053025 48 28 5.0 0.0 0.00 0.00 0.00 95
20230202052723 48 25 0.0 0.0 0.00 0.00 0.00 95
20230202052500 49 25 0.0 0.0 0.00 0.00 0.00 95
20230202052122 49 25 0.0 0.0 0.00 0.00 0.00 95
20230202051820 50 25 0.0 0.0 0.00 0.00 0.00 95
20230202051517 50 25 0.0 0.0 0.00 0.00 0.00 95
20230202051216 49 26 0.0 0.0 0.00 0.00 0.00 95
20230202050915 47 1 0.0 0.0 0.00 0.00 0.00 95
20230202050613 45 70 0.0 0.0 0.00 0.00 0.00 95
20230202050312 45 70 0.0 0.0 0.00 0.00 0.00 95
20230202045709 45 70 0.0 0.0 0.00 0.00 0.00 95
20230202045407 45 70 0.0 0.0 0.00 0.00 0.00 95
20230202044503 45 70 0.0 0.0 0.00 0.00 0.00 95
20230202044201 45 70 0.0 0.0 0.00 0.00 0.00 95
20230202043558 45 70 0.0 0.0 0.00 0.00 0.00 95
20230202043257 45 70 0.0 0.0 0.00 0.00 0.00 95
20230202042654 45 70 0.0 0.0 0.00 0.00 0.00 95
20230202042352 45 70 0.0 0.0 0.00 0.00 0.00 95
20230202042052 45 70 0.0 0.0 0.00 0.00 0.00 95
20230202041750 46 70 0.0 0.0 0.00 0.00 0.00 95
20230202041146 46 70 0.0 0.0 0.00 0.00 0.00 95
20230202040846 46 70 0.0 0.0 0.00 0.00 0.00 95
20230202040243 46 70 0.0 0.0 0.00 0.00 0.00 95
20230202035942 46 70 0.0 0.0 0.00 0.00 0.00 95
20230202035337 46 70 0.0 0.0 0.00 0.00 0.00 95
20230202035036 46 70 0.0 0.0 0.00 0.00 0.00 95
20230202034734 46 70 0.0 0.0 0.00 0.00 0.00 95
20230202034433 46 70 0.0 0.0 0.00 0.00 0.00 95
20230202033830 46 70 0.0 0.0 0.00 0.00 0.00 95
20230202033530 46 70 0.0 0.0 0.00 0.00 0.00 95
20230202033228 46 70 0.0 0.0 0.00 0.00 0.00 95
20230202032925 46 70 0.0 0.0 0.00 0.00 0.00 95
20230202032624 46 70 0.0 0.0 0.00 0.00 0.00 95
20230202032323 46 70 0.0 0.0 0.00 0.00 0.00 95
20230202031722 47 70 0.0 0.0 0.00 0.00 0.00 95
20230202031418 47 70 0.0 0.0 0.00 0.00 0.00 95
20230202030815 47 70 0.0 0.0 0.00 0.00 0.00 95
20230202030514 47 70 0.0 0.0 0.00 0.00 0.00 95
20230202030212 47 70 0.0 0.0 0.00 0.00 0.00 95
20230202025609 47 70 0.0 0.0 0.00 0.00 0.00 95
20230202025307 47 70 0.0 0.0 0.00 0.00 0.00 95
20230202025006 47 70 0.0 0.0 0.00 0.00 0.00 95
20230202024704 47 70 0.0 0.0 0.00 0.00 0.00 95
20230202024404 47 70 0.0 0.0 0.00 0.00 0.00 95
20230202024103 47 70 0.0 0.0 0.00 0.00 0.00 95
20230202023801 48 70 0.0 0.0 0.00 0.00 0.00 95
20230202023459 48 70 0.0 0.0 0.00 0.00 0.00 95
20230202022857 48 334 0.0 0.0 0.00 0.00 0.00 95
20230202022555 47 334 0.0 0.0 0.00 0.00 0.00 95
20230202022252 47 334 0.0 0.0 0.00 0.00 0.00 95
20230202021951 47 334 0.0 0.0 0.00 0.00 0.00 95
20230202021651 47 334 0.0 0.0 0.00 0.00 0.00 95
20230202021349 48 334 0.0 0.0 0.00 0.00 0.00 95
20230202021047 48 334 0.0 0.0 0.00 0.00 0.00 95
20230202020746 48 334 0.0 0.0 0.00 0.00 0.00 95
20230202020133 48 334 0.0 0.0 0.00 0.00 0.00 95
20230202015931 48 334 0.0 0.0 0.00 0.00 0.00 95
20230202015730 48 334 0.0 0.0 0.00 0.00 0.00 95
20230202015529 49 334 0.0 0.0 0.00 0.00 0.00 95
20230202015328 49 334 0.0 0.0 0.00 0.00 0.00 95
20230202014925 49 334 0.0 0.0 0.00 0.00 0.00 95
20230202014723 49 334 0.0 0.0 0.00 0.00 0.00 95
20230202014322 50 334 0.0 0.0 0.00 0.00 0.00 95
20230202014121 50 334 0.0 0.0 0.00 0.00 0.00 95
20230202013718 51 334 0.0 0.0 0.00 0.00 0.00 95
20230202012710 53 334 0.0 0.0 0.00 0.00 0.00 95
20230202012510 54 334 0.0 0.0 0.00 0.00 0.00 95
20230202012308 54 334 0.0 0.0 0.00 0.00 0.00 95
20230202011704 57 334 0.0 0.0 0.00 0.00 0.00 95
20230202011503 58 334 0.0 0.0 0.00 0.00 0.00 95
20230202011302 59 334 0.0 0.0 0.00 0.00 0.00 95
20230202011100 59 334 0.0 0.0 0.00 0.00 0.00 95
20230202010657 60 178 0.0 0.0 0.00 0.00 0.00 95
20230202010255 60 178 0.0 0.0 0.00 0.00 0.00 95
20230202010054 60 178 0.0 0.0 0.00 0.00 0.00 95
20230202005651 60 178 0.0 0.0 0.00 0.00 0.00 95
20230202005248 60 251 0.0 0.0 0.00 0.00 0.00 95
20230202005047 60 251 0.0 0.0 0.00 0.00 0.00 95
20230202004846 61 251 0.0 0.0 0.00 0.00 0.00 95
20230202004644 61 226 0.0 0.0 0.00 0.00 0.00 95
20230202004443 61 178 0.0 0.0 0.00 0.00 0.00 95
20230202004242 61 178 0.0 0.0 0.00 0.00 0.00 95
20230202004040 61 265 0.0 0.0 0.00 0.00 0.00 95
20230202003838 61 244 0.0 0.0 0.00 0.00 0.00 95
20230202002631 62 302 0.0 0.0 0.00 0.00 0.00 95
20230202002430 62 302 0.0 0.0 0.00 0.00 0.00 95
20230202002228 62 106 0.0 0.0 0.00 0.00 0.00 95
20230202002027 62 264 0.0 0.0 0.00 0.00 0.00 95
20230202001423 63 250 0.0 0.0 0.00 0.00 0.00 95
20230202001020 63 271 2.0 0.0 0.00 0.00 0.00 95
20230202000819 63 291 3.0 0.0 0.00 0.00 0.00 95
20230202000618 63 310 2.0 0.0 0.00 0.00 0.00 95
20230201235812 63 240 0.0 0.0 0.00 0.00 0.00 95
20230201235611 63 295 3.0 0.0 0.00 0.00 0.00 95
20230201235409 63 289 4.0 0.0 0.00 0.00 0.00 95
20230201235208 63 292 0.0 0.0 0.00 0.00 0.00 95
20230201235007 63 292 0.0 0.0 0.00 0.00 0.00 95
20230201234604 63 105 0.0 0.0 0.00 0.00 0.00 95